Location: Newark
(35.8833°N, 14.5000°E)
Time: 14:28:06
(UTC+00:00)

Courier 1B - Visible Passes

Search period start: 14 November 2019 00:00
Search period end: 24 November 2019 00:00
Orbit: 963 x 1209 km, 28.3° (Epoch: 13 November)

Date Brightness Start Highest point End Pass type
(mag) Time Alt. Az. Time Alt. Az. Time Alt. Az.
14 Nov 10.0 05:04:14 10° S 05:07:59 16° SSE 05:11:40 10° ESE visible
15 Nov 10.1 04:12:13 10° S 04:14:26 12° SSE 04:16:37 10° SE visible
16 Nov 9.6 05:08:50 10° SSW 05:14:05 24° SSE 05:19:12 10° ESE visible
17 Nov 9.7 04:15:45 10° SSW 04:20:31 20° SSE 04:25:08 10° ESE visible
18 Nov 9.9 03:22:57 10° S 03:26:56 16° SSE 03:30:48 10° ESE visible
19 Nov 10.0 02:31:46 11° SSE 02:33:20 12° SSE 02:35:48 10° SE visible
19 Nov 9.2 04:20:48 10° SW 04:26:39 29° SSE 04:32:16 10° ESE visible
20 Nov 9.3 03:28:50 15° SSW 03:33:02 25° SSE 03:38:22 10° ESE visible
21 Nov 9.4 02:38:52 20° SSE 02:39:23 20° SSE 02:44:18 10° ESE visible
21 Nov 8.7 04:26:27 10° SW 04:32:52 38° S 04:38:59 10° ESE visible
22 Nov 10.1 01:48:49 13° SE 01:48:49 13° SE 01:49:55 10° ESE visible
22 Nov 8.8 03:35:44 22° SSW 03:39:12 34° SSE 03:45:15 10° ESE visible
23 Nov 9.0 02:45:36 30° SSE 02:45:36 30° SSE 02:51:26 10° ESE visible
23 Nov 8.5 04:32:31 10° WSW 04:39:08 44° S 04:45:28 10° ESE visible
